Regional Weather Roundup
Issued by NWS

Home | Current Version | Previous Version | Text Only | Print | Product List | Glossary On
Versions: 1 2 3 4 5 6 7 8 9 10 11 12 13 14 15 16 17 18 19 20 21 22 23 24 25 26 27 28 29 30 31 32 33 34 35 36 37 38 39 40 41 42 43 44 45 46 47 48 49 50
000
ASUS43 KLSX 280410
RWRMO

WEATHER SUMMARY FOR MISSOURI
NATIONAL WEATHER SERVICE SPRINGFIELD MO
1100 PM CDT THU APR 27 2017

NOTE: "FAIR" INDICATES FEW OR NO CLOUDS BELOW 12,000 FEET WITH NO
       SIGNIFICANT WEATHER AND/OR OBSTRUCTIONS TO VISIBILITY.
       CURRENT SKY AND/OR WEATHER CONDITIONS ARE NOT AVAILABLE FOR
       CHILLICOTHE AND FARMINGTON.

MOZ001>031-035>038-043-044-053-054-280500-
...NORTHERN AND WESTERN MISSOURI...

CITY           SKY/WX    TMP DP  RH WIND       PRES   REMARKS
KANSAS CTY INT CLOUDY    52  47  83 E7        29.76R
KANSAS C DTWN  CLOUDY    53  47  79 E6        29.76R
LEE`S SUMMIT   CLOUDY    52  49  89 NE6       29.76R
ST JOSEPH      LGT RAIN  50  50 100 NE7       29.76F
CHILLICOTHE      N/A     52  49  89 NE7       29.76F
KIRKSVILLE     CLOUDY    53  46  77 S10       29.83S

$$
MOZ066>068-077>081-088>096-101>105-280500-
...SOUTHWEST MISSOURI...

CITY           SKY/WX    TMP DP  RH WIND       PRES   REMARKS
SPRINGFIELD    MOCLDY    59  45  59 S8        29.77R
JOPLIN         CLOUDY    56  49  77 E5        29.74R
BRANSON        CLOUDY    57  46  67 SE8       29.79R

$$
MOZ032>034-039>042-045>050-055>058-069>072-280500-
...CENTRAL MISSOURI...

CITY           SKY/WX    TMP DP  RH WIND       PRES   REMARKS
COLUMBIA       CLOUDY    55  46  71 NE9       29.77F
JEFFERSON CITY CLOUDY    59  44  57 E14       29.78F
ROLLA          MOCLDY    54  45  71 E7        29.80S
SEDALIA        PTCLDY    55  48  77 NE7       29.77R
WHITEMAN AFB   MOCLDY    53  52  95 NE6       29.75R
OSAGE BEACH    CLOUDY    55  47  74 SE5       29.79R

$$
MOZ051-052-059>065-280500-
...EAST CENTRAL MISSOURI...

CITY           SKY/WX    TMP DP  RH WIND       PRES   REMARKS
ST LOUIS INTL  CLOUDY    58  46  64 NE6       29.87R
SPIRIT OF STL  CLOUDY    54  51  90 CALM      29.86R
ST CHARLES     CLOUDY    53  52  96 NE3       29.87R

$$
MOZ072>076-082>087-097>100-106>115-280500-
...SOUTH CENTRAL AND SOUTHEAST MISSOURI...

CITY           SKY/WX    TMP DP  RH WIND       PRES   REMARKS
CAPE GIRARDEAU PTCLDY    55  51  86 SE3       29.86S
FARMINGTON     CLOUDY    54  50  86 E3        29.84F
POPLAR BLUFF   CLOUDY    58  54  86 E3        29.84F
WEST PLAINS    PTCLDY    57  49  74 SE8       29.81F

$$



USA.gov is the U.S. government's official web portal to all federal, state and local government web resources and services.